Time,TemperatureF,DewpointF,PressureIn,WindDirection,WindDirectionDegrees,WindSpeedMPH,WindSpeedGustMPH,Humidity,HourlyPrecipIn,Conditions,Clouds,dailyrainin,SoftwareType,DateUTC
2013-08-16 00:00:00,63.1,55.8,30.11,North,355,0.0,0.0,77,0.00,,---,0.00,VWS V14.01,2013-08-16 04:00:00,
2013-08-16 00:01:00,63.1,55.8,30.11,North,355,0.0,0.0,77,0.00,,---,0.00,VWS V14.01,2013-08-16 04:01:00,
2013-08-16 00:07:00,62.8,55.5,30.11,North,355,0.0,0.0,77,0.00,,---,0.00,VWS V14.01,2013-08-16 04:07:00,
2013-08-16 00:12:00,62.5,55.9,30.11,North,355,0.0,0.0,79,0.00,,---,0.00,VWS V14.01,2013-08-16 04:12:00,
2013-08-16 00:17:00,62.2,54.9,30.11,North,355,0.0,0.0,77,0.00,,---,0.00,VWS V14.01,2013-08-16 04:17:00,
2013-08-16 00:22:00,61.9,54.3,30.11,North,355,0.0,0.0,76,0.00,,---,0.00,VWS V14.01,2013-08-16 04:22:00,
2013-08-16 00:27:00,61.7,53.3,30.11,North,355,0.0,0.0,74,0.00,,---,0.00,VWS V14.01,2013-08-16 04:27:00,
2013-08-16 00:30:00,61.6,53.2,30.11,North,355,0.0,0.0,74,0.00,,---,0.00,VWS V14.01,2013-08-16 04:30:00,
2013-08-16 00:32:00,61.5,53.2,30.10,North,355,0.0,0.0,74,0.00,,---,0.00,VWS V14.01,2013-08-16 04:32:00,
2013-08-16 00:37:00,61.5,53.2,30.10,North,355,0.0,0.0,74,0.00,,---,0.00,VWS V14.01,2013-08-16 04:37:00,
2013-08-16 00:42:00,61.4,53.0,30.10,North,355,0.0,0.0,74,0.00,,---,0.00,VWS V14.01,2013-08-16 04:42:00,
2013-08-16 00:47:00,61.4,53.0,30.10,North,355,0.0,0.0,74,0.00,,---,0.00,VWS V14.01,2013-08-16 04:47:00,
2013-08-16 00:52:00,61.5,53.5,30.10,North,355,0.0,0.0,75,0.00,,---,0.00,VWS V14.01,2013-08-16 04:52:00,
2013-08-16 00:58:00,61.4,53.4,30.10,North,355,0.0,0.0,75,0.00,,---,0.00,VWS V14.01,2013-08-16 04:58:00,
2013-08-16 01:00:00,61.4,53.8,30.10,North,355,0.0,0.0,76,0.00,,---,0.00,VWS V14.01,2013-08-16 05:00:00,
2013-08-16 01:03:00,61.3,54.4,30.10,North,355,0.0,0.0,78,0.00,,---,0.00,VWS V14.01,2013-08-16 05:03:00,
2013-08-16 01:08:00,60.6,53.7,30.10,North,355,0.0,0.0,78,0.00,,---,0.00,VWS V14.01,2013-08-16 05:08:00,
2013-08-16 01:13:00,59.9,53.4,30.10,North,355,0.0,0.0,79,0.00,,---,0.00,VWS V14.01,2013-08-16 05:13:00,
2013-08-16 01:19:00,59.8,53.3,30.10,North,355,0.0,0.0,79,0.00,,---,0.00,VWS V14.01,2013-08-16 05:19:00,
2013-08-16 01:24:00,59.8,53.3,30.10,North,355,0.0,0.0,79,0.00,,---,0.00,VWS V14.01,2013-08-16 05:24:00,
2013-08-16 01:29:00,59.9,53.0,30.10,North,355,0.0,0.0,78,0.00,,---,0.00,VWS V14.01,2013-08-16 05:29:00,
2013-08-16 01:30:00,60.0,53.1,30.10,North,355,0.0,0.0,78,0.00,,---,0.00,VWS V14.01,2013-08-16 05:30:00,
2013-08-16 01:35:00,60.1,53.6,30.10,North,355,0.0,0.0,79,0.00,,---,0.00,VWS V14.01,2013-08-16 05:35:00,
2013-08-16 01:40:00,60.3,53.4,30.10,North,355,0.0,0.0,78,0.00,,---,0.00,VWS V14.01,2013-08-16 05:40:00,
2013-08-16 01:45:00,60.4,53.9,30.10,North,355,0.0,0.0,79,0.00,,---,0.00,VWS V14.01,2013-08-16 05:45:00,
2013-08-16 01:50:00,60.4,53.5,30.10,North,355,0.0,0.0,78,0.00,,---,0.00,VWS V14.01,2013-08-16 05:50:00,
2013-08-16 01:55:00,60.4,54.2,30.10,North,355,0.0,0.0,80,0.00,,---,0.00,VWS V14.01,2013-08-16 05:55:00,
2013-08-16 02:00:00,60.3,53.8,30.10,North,355,0.0,0.0,79,0.00,,---,0.00,VWS V14.01,2013-08-16 06:00:00,
2013-08-16 02:05:00,60.2,54.0,30.10,North,355,0.0,0.0,80,0.00,,---,0.00,VWS V14.01,2013-08-16 06:05:00,
2013-08-16 02:10:00,60.2,54.7,30.10,North,355,0.0,0.0,82,0.00,,---,0.00,VWS V14.01,2013-08-16 06:10:00,
2013-08-16 02:15:00,60.1,54.6,30.10,North,355,0.0,0.0,82,0.00,,---,0.00,VWS V14.01,2013-08-16 06:15:00,
2013-08-16 02:21:00,59.9,53.7,30.10,North,355,0.0,0.0,80,0.00,,---,0.00,VWS V14.01,2013-08-16 06:21:00,
2013-08-16 02:26:00,59.8,54.3,30.10,North,355,0.0,0.0,82,0.00,,---,0.00,VWS V14.01,2013-08-16 06:26:00,
2013-08-16 02:30:00,59.7,53.9,30.10,North,355,0.0,0.0,81,0.00,,---,0.00,VWS V14.01,2013-08-16 06:30:00,
2013-08-16 02:31:00,59.6,53.8,30.09,North,355,0.0,0.0,81,0.00,,---,0.00,VWS V14.01,2013-08-16 06:31:00,
2013-08-16 02:36:00,59.5,53.3,30.10,North,355,0.0,0.0,80,0.00,,---,0.00,VWS V14.01,2013-08-16 06:36:00,
2013-08-16 02:41:00,59.4,53.2,30.10,North,355,0.0,0.0,80,0.00,,---,0.00,VWS V14.01,2013-08-16 06:41:00,
2013-08-16 02:46:00,59.4,53.6,30.10,North,355,0.0,0.0,81,0.00,,---,0.00,VWS V14.01,2013-08-16 06:46:00,
2013-08-16 02:51:00,59.4,53.9,30.10,North,355,0.0,0.0,82,0.00,,---,0.00,VWS V14.01,2013-08-16 06:51:00,
2013-08-16 02:56:00,59.4,53.9,30.10,North,355,0.0,0.0,82,0.00,,---,0.00,VWS V14.01,2013-08-16 06:56:00,
2013-08-16 03:00:00,59.3,53.1,30.10,North,355,0.0,0.0,80,0.00,,---,0.00,VWS V14.01,2013-08-16 07:00:00,
2013-08-16 03:01:00,59.4,53.2,30.09,North,355,0.0,0.0,80,0.00,,---,0.00,VWS V14.01,2013-08-16 07:01:00,
2013-08-16 03:06:00,59.4,53.6,30.09,North,355,0.0,0.0,81,0.00,,---,0.00,VWS V14.01,2013-08-16 07:06:00,
2013-08-16 03:11:00,59.6,54.1,30.09,North,355,0.0,0.0,82,0.00,,---,0.00,VWS V14.01,2013-08-16 07:11:00,
2013-08-16 03:16:00,59.6,54.1,30.09,North,355,0.0,0.0,82,0.00,,---,0.00,VWS V14.01,2013-08-16 07:16:00,
2013-08-16 03:22:00,59.6,54.1,30.09,North,355,0.0,0.0,82,0.00,,---,0.00,VWS V14.01,2013-08-16 07:22:00,
2013-08-16 03:27:00,59.6,54.4,30.09,North,355,0.0,0.0,83,0.00,,---,0.00,VWS V14.01,2013-08-16 07:27:00,
2013-08-16 03:30:00,59.5,53.7,30.09,North,355,0.0,0.0,81,0.00,,---,0.00,VWS V14.01,2013-08-16 07:30:00,
2013-08-16 03:32:00,59.5,53.3,30.09,North,355,0.0,0.0,80,0.00,,---,0.00,VWS V14.01,2013-08-16 07:32:00,
2013-08-16 03:37:00,59.5,54.3,30.09,North,355,0.0,0.0,83,0.00,,---,0.00,VWS V14.01,2013-08-16 07:37:00,
2013-08-16 03:42:00,59.5,53.7,30.09,North,355,0.0,0.0,81,0.00,,---,0.00,VWS V14.01,2013-08-16 07:42:00,
2013-08-16 03:47:00,59.5,53.7,30.09,North,355,0.0,0.0,81,0.00,,---,0.00,VWS V14.01,2013-08-16 07:47:00,
2013-08-16 03:52:00,59.5,53.7,30.09,North,355,0.0,0.0,81,0.00,,---,0.00,VWS V14.01,2013-08-16 07:52:00,
2013-08-16 03:57:00,59.6,53.4,30.09,North,355,0.0,0.0,80,0.00,,---,0.00,VWS V14.01,2013-08-16 07:57:00,
2013-08-16 04:00:00,59.8,54.6,30.09,North,355,0.0,0.0,83,0.00,,---,0.00,VWS V14.01,2013-08-16 08:00:00,
2013-08-16 04:02:00,59.8,54.3,30.09,North,355,0.0,0.0,82,0.00,,---,0.00,VWS V14.01,2013-08-16 08:02:00,
2013-08-16 04:07:00,59.8,54.3,30.10,North,355,0.0,0.0,82,0.00,,---,0.00,VWS V14.01,2013-08-16 08:07:00,
2013-08-16 04:12:00,59.8,55.3,30.10,North,355,0.0,0.0,85,0.00,,---,0.00,VWS V14.01,2013-08-16 08:12:00,
2013-08-16 04:17:00,59.8,55.0,30.10,North,355,0.0,0.0,84,0.00,,---,0.00,VWS V14.01,2013-08-16 08:17:00,
2013-08-16 04:22:00,59.6,54.1,30.10,North,355,0.0,0.0,82,0.00,,---,0.00,VWS V14.01,2013-08-16 08:22:00,
2013-08-16 04:27:00,59.6,54.4,30.10,North,355,0.0,0.0,83,0.00,,---,0.00,VWS V14.01,2013-08-16 08:27:00,
2013-08-16 04:30:00,59.6,54.1,30.10,North,355,0.0,0.0,82,0.00,,---,0.00,VWS V14.01,2013-08-16 08:30:00,
2013-08-16 04:32:00,59.6,54.1,30.10,North,355,0.0,0.0,82,0.00,,---,0.00,VWS V14.01,2013-08-16 08:32:00,
2013-08-16 04:38:00,59.7,54.2,30.10,North,355,0.0,0.0,82,0.00,,---,0.00,VWS V14.01,2013-08-16 08:38:00,
2013-08-16 04:43:00,59.9,54.1,30.10,North,355,0.0,0.0,81,0.00,,---,0.00,VWS V14.01,2013-08-16 08:43:00,
2013-08-16 04:48:00,60.0,54.2,30.09,North,355,0.0,0.0,81,0.00,,---,0.00,VWS V14.01,2013-08-16 08:48:00,
2013-08-16 04:53:00,60.0,54.2,30.10,North,355,0.0,0.0,81,0.00,,---,0.00,VWS V14.01,2013-08-16 08:53:00,
2013-08-16 04:58:00,60.1,55.3,30.10,North,355,0.0,0.0,84,0.00,,---,0.00,VWS V14.01,2013-08-16 08:58:00,
2013-08-16 05:00:00,60.1,55.3,30.10,North,355,0.0,0.0,84,0.00,,---,0.00,VWS V14.01,2013-08-16 09:00:00,
2013-08-16 05:03:00,60.1,55.9,30.10,North,355,0.0,0.0,86,0.00,,---,0.00,VWS V14.01,2013-08-16 09:03:00,
2013-08-16 05:08:00,60.0,55.8,30.10,North,355,0.0,0.0,86,0.00,,---,0.00,VWS V14.01,2013-08-16 09:08:00,
2013-08-16 05:13:00,59.9,54.4,30.10,North,355,0.0,0.0,82,0.00,,---,0.00,VWS V14.01,2013-08-16 09:13:00,
2013-08-16 05:18:00,59.8,54.0,30.10,North,355,0.0,0.0,81,0.00,,---,0.00,VWS V14.01,2013-08-16 09:18:00,
2013-08-16 05:23:00,59.9,53.4,30.10,North,355,0.0,0.0,79,0.00,,---,0.00,VWS V14.01,2013-08-16 09:23:00,
2013-08-16 05:29:00,59.9,53.0,30.10,North,355,0.0,0.0,78,0.00,,---,0.00,VWS V14.01,2013-08-16 09:29:00,
2013-08-16 05:30:00,60.0,53.1,30.10,North,355,0.0,0.0,78,0.00,,---,0.00,VWS V14.01,2013-08-16 09:30:00,
2013-08-16 05:34:00,60.0,53.1,30.10,North,355,0.0,0.0,78,0.00,,---,0.00,VWS V14.01,2013-08-16 09:34:00,
2013-08-16 05:39:00,60.1,52.9,30.10,North,355,0.0,0.0,77,0.00,,---,0.00,VWS V14.01,2013-08-16 09:39:00,
2013-08-16 05:44:00,60.1,52.9,30.10,North,355,0.0,0.0,77,0.00,,---,0.00,VWS V14.01,2013-08-16 09:44:00,
2013-08-16 05:49:00,60.1,53.2,30.11,North,355,0.0,0.0,78,0.00,,---,0.00,VWS V14.01,2013-08-16 09:49:00,
2013-08-16 05:54:00,60.0,53.1,30.11,North,355,0.0,0.0,78,0.00,,---,0.00,VWS V14.01,2013-08-16 09:54:00,
2013-08-16 05:59:00,60.1,55.6,30.11,North,355,0.0,0.0,85,0.00,,---,0.00,VWS V14.01,2013-08-16 09:59:00,
2013-08-16 06:00:00,60.0,55.5,30.11,North,355,0.0,0.0,85,0.00,,---,0.00,VWS V14.01,2013-08-16 10:00:00,
2013-08-16 06:04:00,59.8,55.3,30.11,North,355,0.0,0.0,85,0.00,,---,0.00,VWS V14.01,2013-08-16 10:04:00,
2013-08-16 06:09:00,59.2,54.7,30.11,North,355,0.0,0.0,85,0.00,,---,0.00,VWS V14.01,2013-08-16 10:09:00,
2013-08-16 06:14:00,58.9,54.7,30.11,North,355,0.0,0.0,86,0.00,,---,0.00,VWS V14.01,2013-08-16 10:14:00,
2013-08-16 06:19:00,58.3,54.1,30.11,North,355,0.0,0.0,86,0.00,,---,0.00,VWS V14.01,2013-08-16 10:19:00,
2013-08-16 06:25:00,58.0,53.8,30.11,North,355,0.0,0.0,86,0.00,,---,0.00,VWS V14.01,2013-08-16 10:25:00,
2013-08-16 06:30:00,57.8,54.0,30.11,North,355,0.0,0.0,87,0.00,,---,0.00,VWS V14.01,2013-08-16 10:30:00,
2013-08-16 06:35:00,57.7,54.2,30.11,North,355,0.0,0.0,88,0.00,,---,0.00,VWS V14.01,2013-08-16 10:35:00,
2013-08-16 06:40:00,57.6,54.1,30.12,North,355,0.0,0.0,88,0.00,,---,0.00,VWS V14.01,2013-08-16 10:40:00,
2013-08-16 06:45:00,57.6,54.4,30.12,North,355,0.0,0.0,89,0.00,,---,0.00,VWS V14.01,2013-08-16 10:45:00,
2013-08-16 06:50:00,57.6,54.4,30.12,North,355,0.0,0.0,89,0.00,,---,0.00,VWS V14.01,2013-08-16 10:50:00,
2013-08-16 06:55:00,57.5,54.0,30.12,North,355,0.0,0.0,88,0.00,,---,0.00,VWS V14.01,2013-08-16 10:55:00,
2013-08-16 07:00:00,57.7,54.5,30.12,North,355,0.0,0.0,89,0.00,,---,0.00,VWS V14.01,2013-08-16 11:00:00,
2013-08-16 07:05:00,57.8,54.3,30.12,North,355,0.0,0.0,88,0.00,,---,0.00,VWS V14.01,2013-08-16 11:05:00,
2013-08-16 07:10:00,58.0,54.5,30.12,North,355,0.0,0.0,88,0.00,,---,0.00,VWS V14.01,2013-08-16 11:10:00,
2013-08-16 07:15:00,58.2,54.7,30.13,North,355,0.0,0.0,88,0.00,,---,0.00,VWS V14.01,2013-08-16 11:15:00,
2013-08-16 07:20:00,58.4,53.9,30.13,North,355,0.0,0.0,85,0.00,,---,0.00,VWS V14.01,2013-08-16 11:20:00,
2013-08-16 07:26:00,58.6,53.8,30.13,North,355,0.0,0.0,84,0.00,,---,0.00,VWS V14.01,2013-08-16 11:26:00,
2013-08-16 07:30:00,59.0,54.2,30.13,North,355,0.0,0.0,84,0.00,,---,0.00,VWS V14.01,2013-08-16 11:30:00,
2013-08-16 07:31:00,59.0,54.2,30.13,North,355,0.0,0.0,84,0.00,,---,0.00,VWS V14.01,2013-08-16 11:31:00,
2013-08-16 07:36:00,59.0,53.5,30.13,North,355,0.0,0.0,82,0.00,,---,0.00,VWS V14.01,2013-08-16 11:36:00,
2013-08-16 07:41:00,59.5,54.3,30.13,North,355,0.0,0.0,83,0.00,,---,0.00,VWS V14.01,2013-08-16 11:41:00,
2013-08-16 07:46:00,59.8,55.0,30.13,North,355,0.0,0.0,84,0.00,,---,0.00,VWS V14.01,2013-08-16 11:46:00,
2013-08-16 07:51:00,59.9,55.1,30.13,North,355,0.0,0.0,84,0.00,,---,0.00,VWS V14.01,2013-08-16 11:51:00,
2013-08-16 07:56:00,59.9,55.4,30.13,North,355,0.0,0.0,85,0.00,,---,0.00,VWS V14.01,2013-08-16 11:56:00,
2013-08-16 08:00:00,59.9,54.7,30.13,North,355,0.0,0.0,83,0.00,,---,0.00,VWS V14.01,2013-08-16 12:00:00,
2013-08-16 08:01:00,59.9,55.1,30.13,North,355,0.0,0.0,84,0.00,,---,0.00,VWS V14.01,2013-08-16 12:01:00,
2013-08-16 08:06:00,60.0,55.2,30.13,North,355,0.0,0.0,84,0.00,,---,0.00,VWS V14.01,2013-08-16 12:06:00,
2013-08-16 08:11:00,60.2,55.0,30.13,North,355,0.0,0.0,83,0.00,,---,0.00,VWS V14.01,2013-08-16 12:11:00,
2013-08-16 08:17:00,60.5,55.7,30.13,North,355,0.0,0.0,84,0.00,,---,0.00,VWS V14.01,2013-08-16 12:17:00,
2013-08-16 08:22:00,60.7,55.8,30.13,North,355,0.0,0.0,84,0.00,,---,0.00,VWS V14.01,2013-08-16 12:22:00,
2013-08-16 08:27:00,60.8,56.9,30.13,North,355,0.0,0.0,87,0.00,,---,0.00,VWS V14.01,2013-08-16 12:27:00,
2013-08-16 08:30:00,60.8,57.2,30.13,North,355,0.0,0.0,88,0.00,,---,0.00,VWS V14.01,2013-08-16 12:30:00,
2013-08-16 08:32:00,60.7,57.4,30.13,North,355,0.0,0.0,89,0.00,,---,0.00,VWS V14.01,2013-08-16 12:32:00,
2013-08-16 08:37:00,60.7,57.1,30.14,North,355,0.0,0.0,88,0.00,,---,0.00,VWS V14.01,2013-08-16 12:37:00,
2013-08-16 08:42:00,60.8,57.2,30.14,North,355,0.0,0.0,88,0.00,,---,0.00,VWS V14.01,2013-08-16 12:42:00,
2013-08-16 08:47:00,61.1,57.2,30.14,North,355,0.0,0.0,87,0.00,,---,0.00,VWS V14.01,2013-08-16 12:47:00,
2013-08-16 08:52:00,61.6,56.1,30.14,North,355,0.0,0.0,82,0.00,,---,0.00,VWS V14.01,2013-08-16 12:52:00,
2013-08-16 08:58:00,62.3,57.4,30.14,North,355,0.0,0.0,84,0.00,,---,0.00,VWS V14.01,2013-08-16 12:58:00,
2013-08-16 09:00:00,62.6,57.0,30.14,North,355,0.0,0.0,82,0.00,,---,0.00,VWS V14.01,2013-08-16 13:00:00,
2013-08-16 09:03:00,62.8,56.9,30.14,North,355,0.0,0.0,81,0.00,,---,0.00,VWS V14.01,2013-08-16 13:03:00,
2013-08-16 09:08:00,63.2,57.6,30.13,North,355,0.0,0.0,82,0.00,,---,0.00,VWS V14.01,2013-08-16 13:08:00,
2013-08-16 09:13:00,63.6,56.6,30.13,North,355,0.0,0.0,78,0.00,,---,0.00,VWS V14.01,2013-08-16 13:13:00,
2013-08-16 09:18:00,63.9,56.9,30.14,North,355,0.0,0.0,78,0.00,,---,0.00,VWS V14.01,2013-08-16 13:18:00,
2013-08-16 09:23:00,64.4,57.4,30.14,North,355,0.0,0.0,78,0.00,,---,0.00,VWS V14.01,2013-08-16 13:23:00,
2013-08-16 09:28:00,64.9,57.2,30.13,North,355,0.0,0.0,76,0.00,,---,0.00,VWS V14.01,2013-08-16 13:28:00,
2013-08-16 09:30:00,65.2,57.8,30.13,North,355,0.0,0.0,77,0.00,,---,0.00,VWS V14.01,2013-08-16 13:30:00,
2013-08-16 09:33:00,65.5,58.1,30.14,North,355,0.0,0.0,77,0.00,,---,0.00,VWS V14.01,2013-08-16 13:33:00,
2013-08-16 09:38:00,65.9,57.8,30.14,North,355,1.0,2.0,75,0.00,,---,0.00,VWS V14.01,2013-08-16 13:38:00,
2013-08-16 09:44:00,66.3,57.0,30.14,North,355,1.0,2.0,72,0.00,,---,0.00,VWS V14.01,2013-08-16 13:44:00,
2013-08-16 09:49:00,66.6,56.9,30.14,North,355,0.0,2.0,71,0.00,,---,0.00,VWS V14.01,2013-08-16 13:49:00,
2013-08-16 09:54:00,67.1,57.0,30.14,North,355,0.0,2.0,70,0.00,,---,0.00,VWS V14.01,2013-08-16 13:54:00,
2013-08-16 09:59:00,67.8,57.7,30.14,North,355,0.0,2.0,70,0.00,,---,0.00,VWS V14.01,2013-08-16 13:59:00,
2013-08-16 10:00:00,67.9,57.4,30.14,North,355,0.0,2.0,69,0.00,,---,0.00,VWS V14.01,2013-08-16 14:00:00,
2013-08-16 10:04:00,68.3,58.2,30.14,North,355,2.0,2.0,70,0.00,,---,0.00,VWS V14.01,2013-08-16 14:04:00,
2013-08-16 10:09:00,68.8,59.0,30.14,North,355,0.0,2.0,71,0.00,,---,0.00,VWS V14.01,2013-08-16 14:09:00,
2013-08-16 10:14:00,69.1,58.5,30.14,North,355,1.0,2.0,69,0.00,,---,0.00,VWS V14.01,2013-08-16 14:14:00,
2013-08-16 10:19:00,69.4,58.8,30.14,NNW,341,0.0,3.0,69,0.00,,---,0.00,VWS V14.01,2013-08-16 14:19:00,
2013-08-16 10:24:00,69.8,58.8,30.14,NNW,341,0.0,3.0,68,0.00,,---,0.00,VWS V14.01,2013-08-16 14:24:00,
2013-08-16 10:29:00,70.2,59.2,30.14,NNW,341,0.0,3.0,68,0.00,,---,0.00,VWS V14.01,2013-08-16 14:29:00,
2013-08-16 10:30:00,70.2,59.2,30.14,NNW,341,0.0,3.0,68,0.00,,---,0.00,VWS V14.01,2013-08-16 14:30:00,
2013-08-16 10:34:00,70.3,59.7,30.14,North,9,2.0,3.0,69,0.00,,---,0.00,VWS V14.01,2013-08-16 14:34:00,
2013-08-16 10:39:00,70.4,59.3,30.14,NNW,330,0.0,3.0,68,0.00,,---,0.00,VWS V14.01,2013-08-16 14:39:00,
2013-08-16 10:45:00,70.6,60.3,30.14,NNW,330,0.0,3.0,70,0.00,,---,0.00,VWS V14.01,2013-08-16 14:45:00,
2013-08-16 10:50:00,71.0,59.5,30.14,NNW,330,2.0,3.0,67,0.00,,---,0.00,VWS V14.01,2013-08-16 14:50:00,
2013-08-16 10:55:00,71.1,59.6,30.14,NNW,330,1.0,3.0,67,0.00,,---,0.00,VWS V14.01,2013-08-16 14:55:00,
2013-08-16 11:00:00,71.0,58.2,30.14,NNW,330,0.0,3.0,64,0.00,,---,0.00,VWS V14.01,2013-08-16 15:00:00,
2013-08-16 11:05:00,70.8,58.0,30.14,NNW,330,2.0,2.0,64,0.00,,---,0.00,VWS V14.01,2013-08-16 15:05:00,
2013-08-16 11:10:00,70.5,57.3,30.14,NNW,330,0.0,2.0,63,0.00,,---,0.00,VWS V14.01,2013-08-16 15:10:00,
2013-08-16 11:15:00,70.7,59.2,30.14,NNW,330,0.0,2.0,67,0.00,,---,0.00,VWS V14.01,2013-08-16 15:15:00,
2013-08-16 11:20:00,71.1,58.3,30.14,NNW,330,0.0,2.0,64,0.00,,---,0.00,VWS V14.01,2013-08-16 15:20:00,
2013-08-16 11:25:00,71.6,59.2,30.14,NNW,330,2.0,3.0,65,0.00,,---,0.00,VWS V14.01,2013-08-16 15:25:00,
2013-08-16 11:30:00,71.4,56.8,30.14,North,360,0.0,3.0,60,0.00,,---,0.00,VWS V14.01,2013-08-16 15:30:00,
2013-08-16 11:35:00,71.7,58.0,30.14,North,360,0.0,2.0,62,0.00,,---,0.00,VWS V14.01,2013-08-16 15:35:00,
2013-08-16 11:40:00,71.9,58.6,30.14,North,360,2.0,2.0,63,0.00,,---,0.00,VWS V14.01,2013-08-16 15:40:00,
2013-08-16 11:45:00,71.7,58.5,30.14,North,355,2.0,3.0,63,0.00,,---,0.00,VWS V14.01,2013-08-16 15:45:00,
2013-08-16 11:50:00,71.8,57.6,30.14,North,5,0.0,3.0,61,0.00,,---,0.00,VWS V14.01,2013-08-16 15:50:00,
2013-08-16 11:56:00,72.2,58.0,30.14,North,9,0.0,3.0,61,0.00,,---,0.00,VWS V14.01,2013-08-16 15:56:00,
2013-08-16 12:00:00,72.6,59.7,30.13,North,9,2.0,3.0,64,0.00,,---,0.00,VWS V14.01,2013-08-16 16:00:00,
2013-08-16 12:01:00,72.6,59.7,30.14,North,9,2.0,3.0,64,0.00,,---,0.00,VWS V14.01,2013-08-16 16:01:00,
2013-08-16 12:06:00,72.7,59.4,30.14,North,9,0.0,3.0,63,0.00,,---,0.00,VWS V14.01,2013-08-16 16:06:00,
2013-08-16 12:11:00,72.8,57.7,30.13,South,175,0.0,3.0,59,0.00,,---,0.00,VWS V14.01,2013-08-16 16:11:00,
2013-08-16 12:16:00,72.0,58.3,30.13,South,175,0.0,3.0,62,0.00,,---,0.00,VWS V14.01,2013-08-16 16:16:00,
2013-08-16 12:21:00,71.3,59.4,30.14,SSE,150,0.0,3.0,66,0.00,,---,0.00,VWS V14.01,2013-08-16 16:21:00,
2013-08-16 12:26:00,71.4,58.2,30.14,SE,128,1.0,3.0,63,0.00,,---,0.00,VWS V14.01,2013-08-16 16:26:00,
2013-08-16 12:30:00,71.5,56.0,30.14,SE,128,0.0,3.0,58,0.00,,---,0.00,VWS V14.01,2013-08-16 16:30:00,
2013-08-16 12:31:00,71.5,56.9,30.14,SE,128,0.0,0.0,60,0.00,,---,0.00,VWS V14.01,2013-08-16 16:31:00,
2013-08-16 12:36:00,71.3,57.2,30.14,SE,128,0.0,0.0,61,0.00,,---,0.00,VWS V14.01,2013-08-16 16:36:00,
2013-08-16 12:41:00,71.3,58.9,30.14,SE,128,0.0,0.0,65,0.00,,---,0.00,VWS V14.01,2013-08-16 16:41:00,
2013-08-16 12:46:00,71.9,57.7,30.14,SE,128,0.0,0.0,61,0.00,,---,0.00,VWS V14.01,2013-08-16 16:46:00,
2013-08-16 12:51:00,72.6,56.0,30.14,SE,128,0.0,0.0,56,0.00,,---,0.00,VWS V14.01,2013-08-16 16:51:00,
2013-08-16 12:56:00,72.2,57.6,30.14,SE,128,0.0,0.0,60,0.00,,---,0.00,VWS V14.01,2013-08-16 16:56:00,
2013-08-16 13:00:00,71.9,59.9,30.14,SE,128,0.0,0.0,66,0.00,,---,0.00,VWS V14.01,2013-08-16 17:00:00,
2013-08-16 13:01:00,71.8,59.8,30.14,SE,128,0.0,0.0,66,0.00,,---,0.00,VWS V14.01,2013-08-16 17:01:00,
2013-08-16 13:06:00,71.5,59.6,30.14,SE,128,0.0,0.0,66,0.00,,---,0.00,VWS V14.01,2013-08-16 17:06:00,
2013-08-16 13:11:00,71.0,59.5,30.14,SE,128,0.0,0.0,67,0.00,,---,0.00,VWS V14.01,2013-08-16 17:11:00,
2013-08-16 13:16:00,70.6,60.3,30.14,SE,128,0.0,0.0,70,0.00,,---,0.00,VWS V14.01,2013-08-16 17:16:00,
2013-08-16 13:21:00,70.7,59.2,30.15,SE,128,0.0,0.0,67,0.00,,---,0.00,VWS V14.01,2013-08-16 17:21:00,
2013-08-16 13:27:00,71.3,62.2,30.14,SE,128,0.0,1.0,73,0.00,,---,0.00,VWS V14.01,2013-08-16 17:27:00,
2013-08-16 13:30:00,71.8,58.1,30.14,SE,128,0.0,1.0,62,0.00,,---,0.00,VWS V14.01,2013-08-16 17:30:00,
2013-08-16 13:32:00,72.2,59.4,30.14,SE,128,0.0,0.0,64,0.00,,---,0.00,VWS V14.01,2013-08-16 17:32:00,
2013-08-16 13:37:00,73.2,59.9,30.14,ESE,110,0.0,1.0,63,0.00,,---,0.00,VWS V14.01,2013-08-16 17:37:00,
2013-08-16 13:42:00,74.3,60.0,30.13,ESE,110,0.0,1.0,61,0.00,,---,0.00,VWS V14.01,2013-08-16 17:42:00,
2013-08-16 13:47:00,74.9,61.9,30.13,ESE,111,0.0,1.0,64,0.00,,---,0.00,VWS V14.01,2013-08-16 17:47:00,
2013-08-16 13:52:00,74.9,60.1,30.13,ESE,110,0.0,1.0,60,0.00,,---,0.00,VWS V14.01,2013-08-16 17:52:00,
2013-08-16 13:57:00,74.2,61.2,30.13,NW,315,0.0,1.0,64,0.00,,---,0.00,VWS V14.01,2013-08-16 17:57:00,
2013-08-16 14:00:00,73.5,60.6,30.13,NW,315,0.0,1.0,64,0.00,,---,0.00,VWS V14.01,2013-08-16 18:00:00,
2013-08-16 14:02:00,73.0,59.7,30.14,NW,315,0.0,0.0,63,0.00,,---,0.00,VWS V14.01,2013-08-16 18:02:00,
2013-08-16 14:07:00,71.9,59.5,30.14,NW,315,0.0,0.0,65,0.00,,---,0.00,VWS V14.01,2013-08-16 18:07:00,
2013-08-16 14:12:00,71.4,57.7,30.14,ESE,115,0.0,0.0,62,0.00,,---,0.00,VWS V14.01,2013-08-16 18:12:00,
2013-08-16 14:17:00,71.3,60.2,30.14,NW,318,0.0,0.0,68,0.00,,---,0.00,VWS V14.01,2013-08-16 18:17:00,
2013-08-16 14:22:00,71.2,59.7,30.14,NW,318,0.0,0.0,67,0.00,,---,0.00,VWS V14.01,2013-08-16 18:22:00,
2013-08-16 14:27:00,71.1,59.6,30.14,SSE,147,0.0,1.0,67,0.00,,---,0.00,VWS V14.01,2013-08-16 18:27:00,
2013-08-16 14:30:00,71.0,59.5,30.14,SSE,147,0.0,1.0,67,0.00,,---,0.00,VWS V14.01,2013-08-16 18:30:00,
2013-08-16 14:32:00,70.9,59.4,30.14,SSE,154,0.0,0.0,67,0.00,,---,0.00,VWS V14.01,2013-08-16 18:32:00,
2013-08-16 14:37:00,70.7,58.8,30.13,SSE,154,0.0,0.0,66,0.00,,---,0.00,VWS V14.01,2013-08-16 18:37:00,
2013-08-16 14:43:00,70.4,58.5,30.13,SSE,155,0.0,0.0,66,0.00,,---,0.00,VWS V14.01,2013-08-16 18:43:00,
2013-08-16 14:48:00,70.3,58.8,30.13,SSE,155,0.0,0.0,67,0.00,,---,0.00,VWS V14.01,2013-08-16 18:48:00,
2013-08-16 14:53:00,70.3,58.4,30.13,SSE,155,0.0,0.0,66,0.00,,---,0.00,VWS V14.01,2013-08-16 18:53:00,
2013-08-16 14:58:00,70.4,58.9,30.13,SSE,154,0.0,0.0,67,0.00,,---,0.00,VWS V14.01,2013-08-16 18:58:00,
2013-08-16 15:00:00,70.5,58.6,30.13,SSE,154,0.0,0.0,66,0.00,,---,0.00,VWS V14.01,2013-08-16 19:00:00,
2013-08-16 15:03:00,70.7,59.6,30.13,SSE,155,0.0,0.0,68,0.00,,---,0.00,VWS V14.01,2013-08-16 19:03:00,
2013-08-16 15:08:00,71.3,60.6,30.12,East,86,0.0,0.0,69,0.00,,---,0.00,VWS V14.01,2013-08-16 19:08:00,
2013-08-16 15:13:00,72.3,61.6,30.12,East,86,0.0,0.0,69,0.00,,---,0.00,VWS V14.01,2013-08-16 19:13:00,
2013-08-16 15:18:00,73.5,60.6,30.12,East,86,0.0,0.0,64,0.00,,---,0.00,VWS V14.01,2013-08-16 19:18:00,
2013-08-16 15:23:00,74.1,59.3,30.12,East,86,0.0,1.0,60,0.00,,---,0.00,VWS V14.01,2013-08-16 19:23:00,
2013-08-16 15:29:00,73.9,60.5,30.12,East,86,0.0,1.0,63,0.00,,---,0.00,VWS V14.01,2013-08-16 19:29:00,
2013-08-16 15:30:00,73.8,60.9,30.12,East,86,0.0,1.0,64,0.00,,---,0.00,VWS V14.01,2013-08-16 19:30:00,
2013-08-16 15:34:00,73.1,59.8,30.12,East,86,0.0,0.0,63,0.00,,---,0.00,VWS V14.01,2013-08-16 19:34:00,
2013-08-16 15:39:00,72.2,58.0,30.12,East,86,0.0,0.0,61,0.00,,---,0.00,VWS V14.01,2013-08-16 19:39:00,
2013-08-16 15:44:00,72.1,59.3,30.12,East,86,0.0,0.0,64,0.00,,---,0.00,VWS V14.01,2013-08-16 19:44:00,
2013-08-16 15:49:00,72.7,59.8,30.12,East,86,0.0,0.0,64,0.00,,---,0.00,VWS V14.01,2013-08-16 19:49:00,
2013-08-16 15:54:00,73.7,60.3,30.12,East,87,0.0,1.0,63,0.00,,---,0.00,VWS V14.01,2013-08-16 19:54:00,
2013-08-16 15:59:00,74.4,60.1,30.11,East,87,0.0,1.0,61,0.00,,---,0.00,VWS V14.01,2013-08-16 19:59:00,
2013-08-16 16:00:00,74.5,60.2,30.11,East,87,0.0,1.0,61,0.00,,---,0.00,VWS V14.01,2013-08-16 20:00:00,
2013-08-16 16:04:00,74.9,60.6,30.11,East,87,0.0,1.0,61,0.00,,---,0.00,VWS V14.01,2013-08-16 20:04:00,
2013-08-16 16:09:00,75.2,59.9,30.11,East,87,0.0,1.0,59,0.00,,---,0.00,VWS V14.01,2013-08-16 20:09:00,
2013-08-16 16:14:00,75.7,60.4,30.11,East,87,0.0,1.0,59,0.00,,---,0.00,VWS V14.01,2013-08-16 20:14:00,
2013-08-16 16:19:00,76.0,60.7,30.11,East,87,0.0,1.0,59,0.00,,---,0.00,VWS V14.01,2013-08-16 20:19:00,
2013-08-16 16:25:00,75.9,60.6,30.12,East,87,0.0,1.0,59,0.00,,---,0.00,VWS V14.01,2013-08-16 20:25:00,
2013-08-16 16:30:00,74.9,61.0,30.12,East,87,0.0,1.0,62,0.00,,---,0.00,VWS V14.01,2013-08-16 20:30:00,
2013-08-16 16:35:00,74.2,60.4,30.12,East,87,0.0,0.0,62,0.00,,---,0.00,VWS V14.01,2013-08-16 20:35:00,
2013-08-16 16:40:00,73.9,59.6,30.12,East,87,0.0,0.0,61,0.00,,---,0.00,VWS V14.01,2013-08-16 20:40:00,
2013-08-16 16:45:00,74.0,58.8,30.11,East,87,0.0,0.0,59,0.00,,---,0.00,VWS V14.01,2013-08-16 20:45:00,
2013-08-16 16:50:00,74.1,59.8,30.12,East,87,0.0,0.0,61,0.00,,---,0.00,VWS V14.01,2013-08-16 20:50:00,
2013-08-16 16:55:00,74.3,60.5,30.11,East,87,0.0,0.0,62,0.00,,---,0.00,VWS V14.01,2013-08-16 20:55:00,
2013-08-16 17:00:00,74.8,60.5,30.12,East,87,0.0,0.0,61,0.00,,---,0.00,VWS V14.01,2013-08-16 21:00:00,
2013-08-16 17:05:00,74.8,60.9,30.12,East,87,0.0,0.0,62,0.00,,---,0.00,VWS V14.01,2013-08-16 21:05:00,
2013-08-16 17:10:00,74.4,60.5,30.12,East,87,0.0,0.0,62,0.00,,---,0.00,VWS V14.01,2013-08-16 21:10:00,
2013-08-16 17:15:00,73.6,60.7,30.12,East,87,0.0,0.0,64,0.00,,---,0.00,VWS V14.01,2013-08-16 21:15:00,
2013-08-16 17:20:00,73.0,60.5,30.12,East,87,0.0,0.0,65,0.00,,---,0.00,VWS V14.01,2013-08-16 21:20:00,
2013-08-16 17:26:00,72.7,59.8,30.12,East,87,0.0,0.0,64,0.00,,---,0.00,VWS V14.01,2013-08-16 21:26:00,
2013-08-16 17:30:00,72.3,59.0,30.13,East,87,0.0,0.0,63,0.00,,---,0.00,VWS V14.01,2013-08-16 21:30:00,
2013-08-16 17:31:00,72.3,59.0,30.13,East,87,0.0,0.0,63,0.00,,---,0.00,VWS V14.01,2013-08-16 21:31:00,
2013-08-16 17:36:00,72.1,58.8,30.13,East,87,0.0,0.0,63,0.00,,---,0.00,VWS V14.01,2013-08-16 21:36:00,
2013-08-16 17:41:00,72.1,58.4,30.12,East,87,0.0,0.0,62,0.00,,---,0.00,VWS V14.01,2013-08-16 21:41:00,
2013-08-16 17:46:00,72.0,59.2,30.12,East,87,0.0,0.0,64,0.00,,---,0.00,VWS V14.01,2013-08-16 21:46:00,
2013-08-16 17:51:00,71.9,58.2,30.12,East,87,0.0,0.0,62,0.00,,---,0.00,VWS V14.01,2013-08-16 21:51:00,
2013-08-16 17:56:00,71.8,58.5,30.12,East,87,0.0,0.0,63,0.00,,---,0.00,VWS V14.01,2013-08-16 21:56:00,
2013-08-16 18:00:00,71.7,58.0,30.12,East,87,0.0,0.0,62,0.00,,---,0.00,VWS V14.01,2013-08-16 22:00:00,
2013-08-16 18:01:00,71.7,58.0,30.13,East,87,0.0,0.0,62,0.00,,---,0.00,VWS V14.01,2013-08-16 22:01:00,
2013-08-16 18:06:00,71.6,58.3,30.13,East,87,0.0,0.0,63,0.00,,---,0.00,VWS V14.01,2013-08-16 22:06:00,
2013-08-16 18:11:00,71.6,58.3,30.12,East,87,0.0,0.0,63,0.00,,---,0.00,VWS V14.01,2013-08-16 22:11:00,
2013-08-16 18:16:00,71.5,58.3,30.12,East,87,0.0,0.0,63,0.00,,---,0.00,VWS V14.01,2013-08-16 22:16:00,
2013-08-16 18:21:00,71.4,58.6,30.12,East,87,0.0,0.0,64,0.00,,---,0.00,VWS V14.01,2013-08-16 22:21:00,
2013-08-16 18:26:00,71.3,57.6,30.13,East,87,0.0,0.0,62,0.00,,---,0.00,VWS V14.01,2013-08-16 22:26:00,
2013-08-16 18:30:00,71.3,58.5,30.12,East,87,0.0,0.0,64,0.00,,---,0.00,VWS V14.01,2013-08-16 22:30:00,
2013-08-16 18:32:00,71.3,58.9,30.12,East,87,0.0,0.0,65,0.00,,---,0.00,VWS V14.01,2013-08-16 22:32:00,
2013-08-16 18:37:00,71.1,58.8,30.13,East,87,0.0,0.0,65,0.00,,---,0.00,VWS V14.01,2013-08-16 22:37:00,
2013-08-16 18:42:00,71.0,58.2,30.13,East,87,0.0,0.0,64,0.00,,---,0.00,VWS V14.01,2013-08-16 22:42:00,
2013-08-16 18:47:00,70.7,58.8,30.13,East,87,0.0,0.0,66,0.00,,---,0.00,VWS V14.01,2013-08-16 22:47:00,
2013-08-16 18:52:00,70.5,58.6,30.13,East,87,0.0,0.0,66,0.00,,---,0.00,VWS V14.01,2013-08-16 22:52:00,
2013-08-16 18:57:00,70.3,58.4,30.13,East,87,0.0,0.0,66,0.00,,---,0.00,VWS V14.01,2013-08-16 22:57:00,
2013-08-16 19:00:00,70.3,58.4,30.14,East,87,0.0,0.0,66,0.00,,---,0.00,VWS V14.01,2013-08-16 23:00:00,
2013-08-16 19:02:00,70.2,58.7,30.13,East,87,0.0,0.0,67,0.00,,---,0.00,VWS V14.01,2013-08-16 23:02:00,
2013-08-16 19:07:00,70.1,58.7,30.14,East,87,0.0,0.0,67,0.00,,---,0.00,VWS V14.01,2013-08-16 23:07:00,
2013-08-16 19:12:00,70.1,59.1,30.14,East,87,0.0,0.0,68,0.00,,---,0.00,VWS V14.01,2013-08-16 23:12:00,
2013-08-16 19:17:00,69.9,58.9,30.14,East,87,0.0,0.0,68,0.00,,---,0.00,VWS V14.01,2013-08-16 23:17:00,
2013-08-16 19:22:00,69.8,58.8,30.14,East,87,0.0,0.0,68,0.00,,---,0.00,VWS V14.01,2013-08-16 23:22:00,
2013-08-16 19:27:00,69.7,58.7,30.14,East,87,0.0,0.0,68,0.00,,---,0.00,VWS V14.01,2013-08-16 23:27:00,
2013-08-16 19:30:00,69.7,58.7,30.14,East,87,0.0,0.0,68,0.00,,---,0.00,VWS V14.01,2013-08-16 23:30:00,
2013-08-16 19:32:00,69.6,58.6,30.14,East,87,0.0,0.0,68,0.00,,---,0.00,VWS V14.01,2013-08-16 23:32:00,
2013-08-16 19:37:00,69.4,58.4,30.14,East,87,0.0,0.0,68,0.00,,---,0.00,VWS V14.01,2013-08-16 23:37:00,
2013-08-16 19:42:00,69.3,58.3,30.15,East,87,0.0,0.0,68,0.00,,---,0.00,VWS V14.01,2013-08-16 23:42:00,
2013-08-16 19:47:00,69.1,57.7,30.15,East,87,0.0,0.0,67,0.00,,---,0.00,VWS V14.01,2013-08-16 23:47:00,
2013-08-16 19:52:00,68.9,57.5,30.14,East,87,0.0,0.0,67,0.00,,---,0.00,VWS V14.01,2013-08-16 23:52:00,
2013-08-16 19:58:00,68.6,57.2,30.14,East,87,0.0,0.0,67,0.00,,---,0.00,VWS V14.01,2013-08-16 23:58:00,
2013-08-16 20:00:00,68.5,57.1,30.14,East,87,0.0,0.0,67,0.00,,---,0.00,VWS V14.01,2013-08-17 00:00:00,
2013-08-16 20:03:00,68.4,56.6,30.14,East,87,0.0,0.0,66,0.00,,---,0.00,VWS V14.01,2013-08-17 00:03:00,
2013-08-16 20:08:00,68.3,56.5,30.14,East,87,0.0,0.0,66,0.00,,---,0.00,VWS V14.01,2013-08-17 00:08:00,
2013-08-16 20:13:00,68.2,56.4,30.14,East,87,0.0,0.0,66,0.00,,---,0.00,VWS V14.01,2013-08-17 00:13:00,
2013-08-16 20:18:00,68.1,55.9,30.14,East,87,0.0,0.0,65,0.00,,---,0.00,VWS V14.01,2013-08-17 00:18:00,
2013-08-16 20:23:00,68.0,55.8,30.14,East,87,0.0,0.0,65,0.00,,---,0.00,VWS V14.01,2013-08-17 00:23:00,
2013-08-16 20:28:00,67.9,56.1,30.14,East,87,0.0,0.0,66,0.00,,---,0.00,VWS V14.01,2013-08-17 00:28:00,
2013-08-16 20:30:00,67.9,55.7,30.14,East,87,0.0,0.0,65,0.00,,---,0.00,VWS V14.01,2013-08-17 00:30:00,
2013-08-16 20:33:00,67.8,55.6,30.14,East,87,0.0,0.0,65,0.00,,---,0.00,VWS V14.01,2013-08-17 00:33:00,
2013-08-16 20:38:00,67.7,55.5,30.15,East,87,0.0,0.0,65,0.00,,---,0.00,VWS V14.01,2013-08-17 00:38:00,
2013-08-16 20:43:00,67.6,55.8,30.15,East,87,0.0,0.0,66,0.00,,---,0.00,VWS V14.01,2013-08-17 00:43:00,
2013-08-16 20:48:00,67.4,55.7,30.15,East,87,0.0,0.0,66,0.00,,---,0.00,VWS V14.01,2013-08-17 00:48:00,
2013-08-16 20:53:00,67.3,55.2,30.15,East,87,0.0,0.0,65,0.00,,---,0.00,VWS V14.01,2013-08-17 00:53:00,
2013-08-16 20:58:00,67.2,55.5,30.15,East,87,0.0,0.0,66,0.00,,---,0.00,VWS V14.01,2013-08-17 00:58:00,
2013-08-16 21:00:00,67.2,55.5,30.15,East,87,0.0,0.0,66,0.00,,---,0.00,VWS V14.01,2013-08-17 01:00:00,
2013-08-16 21:04:00,67.1,55.4,30.15,East,87,0.0,0.0,66,0.00,,---,0.00,VWS V14.01,2013-08-17 01:04:00,
2013-08-16 21:09:00,67.0,55.3,30.15,East,87,0.0,0.0,66,0.00,,---,0.00,VWS V14.01,2013-08-17 01:09:00,
2013-08-16 21:14:00,67.0,54.9,30.15,East,87,0.0,0.0,65,0.00,,---,0.00,VWS V14.01,2013-08-17 01:14:00,
2013-08-16 21:19:00,67.0,54.9,30.15,East,87,0.0,0.0,65,0.00,,---,0.00,VWS V14.01,2013-08-17 01:19:00,
2013-08-16 21:24:00,66.9,54.8,30.15,East,87,0.0,0.0,65,0.00,,---,0.00,VWS V14.01,2013-08-17 01:24:00,
2013-08-16 21:29:00,67.1,55.0,30.16,East,87,0.0,0.0,65,0.00,,---,0.00,VWS V14.01,2013-08-17 01:29:00,
2013-08-16 21:30:00,67.1,55.0,30.16,East,87,0.0,0.0,65,0.00,,---,0.00,VWS V14.01,2013-08-17 01:30:00,
2013-08-16 21:34:00,67.2,55.0,30.16,East,87,0.0,0.0,65,0.00,,---,0.00,VWS V14.01,2013-08-17 01:34:00,
2013-08-16 21:39:00,67.2,54.6,30.16,East,87,0.0,0.0,64,0.00,,---,0.00,VWS V14.01,2013-08-17 01:39:00,
2013-08-16 21:44:00,67.4,55.2,30.16,East,87,0.0,0.0,65,0.00,,---,0.00,VWS V14.01,2013-08-17 01:44:00,
2013-08-16 21:49:00,67.1,56.6,30.16,East,87,0.0,0.0,69,0.00,,---,0.00,VWS V14.01,2013-08-17 01:49:00,
2013-08-16 21:54:00,66.4,57.5,30.16,East,87,0.0,0.0,73,0.00,,---,0.00,VWS V14.01,2013-08-17 01:54:00,
2013-08-16 21:59:00,65.7,57.2,30.16,East,87,0.0,0.0,74,0.00,,---,0.00,VWS V14.01,2013-08-17 01:59:00,
2013-08-16 22:00:00,65.6,57.5,30.16,East,87,0.0,0.0,75,0.00,,---,0.00,VWS V14.01,2013-08-17 02:00:00,
2013-08-16 22:05:00,65.1,57.4,30.16,East,87,0.0,0.0,76,0.00,,---,0.00,VWS V14.01,2013-08-17 02:05:00,
2013-08-16 22:10:00,64.7,57.3,30.16,East,87,0.0,0.0,77,0.00,,---,0.00,VWS V14.01,2013-08-17 02:10:00,
2013-08-16 22:15:00,64.3,57.7,30.16,East,87,0.0,0.0,79,0.00,,---,0.00,VWS V14.01,2013-08-17 02:15:00,
2013-08-16 22:20:00,64.1,57.5,30.16,East,87,0.0,0.0,79,0.00,,---,0.00,VWS V14.01,2013-08-17 02:20:00,
2013-08-16 22:25:00,64.0,57.4,30.16,East,87,0.0,0.0,79,0.00,,---,0.00,VWS V14.01,2013-08-17 02:25:00,
2013-08-16 22:30:00,63.8,57.5,30.16,East,87,0.0,0.0,80,0.00,,---,0.00,VWS V14.01,2013-08-17 02:30:00,
2013-08-16 22:35:00,63.6,57.7,30.16,East,87,0.0,0.0,81,0.00,,---,0.00,VWS V14.01,2013-08-17 02:35:00,
2013-08-16 22:40:00,63.4,57.1,30.16,East,87,0.0,0.0,80,0.00,,---,0.00,VWS V14.01,2013-08-17 02:40:00,
2013-08-16 22:45:00,63.3,57.7,30.16,East,87,0.0,0.0,82,0.00,,---,0.00,VWS V14.01,2013-08-17 02:45:00,
2013-08-16 22:51:00,63.2,58.0,30.16,East,87,0.0,0.0,83,0.00,,---,0.00,VWS V14.01,2013-08-17 02:51:00,
2013-08-16 22:56:00,63.1,57.2,30.16,East,87,0.0,0.0,81,0.00,,---,0.00,VWS V14.01,2013-08-17 02:56:00,
2013-08-16 23:00:00,63.0,57.1,30.16,East,87,0.0,0.0,81,0.00,,---,0.00,VWS V14.01,2013-08-17 03:00:00,
2013-08-16 23:01:00,63.0,57.1,30.16,East,87,0.0,0.0,81,0.00,,---,0.00,VWS V14.01,2013-08-17 03:01:00,
2013-08-16 23:06:00,62.9,57.0,30.16,East,87,0.0,0.0,81,0.00,,---,0.00,VWS V14.01,2013-08-17 03:06:00,
2013-08-16 23:11:00,62.8,56.5,30.16,East,87,0.0,0.0,80,0.00,,---,0.00,VWS V14.01,2013-08-17 03:11:00,
2013-08-16 23:16:00,62.8,56.9,30.16,East,87,0.0,0.0,81,0.00,,---,0.00,VWS V14.01,2013-08-17 03:16:00,
2013-08-16 23:21:00,62.8,56.5,30.17,East,87,0.0,0.0,80,0.00,,---,0.00,VWS V14.01,2013-08-17 03:21:00,
2013-08-16 23:26:00,62.7,56.8,30.17,East,87,0.0,0.0,81,0.00,,---,0.00,VWS V14.01,2013-08-17 03:26:00,
2013-08-16 23:30:00,62.7,56.8,30.17,East,87,0.0,0.0,81,0.00,,---,0.00,VWS V14.01,2013-08-17 03:30:00,
2013-08-16 23:31:00,62.7,56.8,30.17,East,87,0.0,0.0,81,0.00,,---,0.00,VWS V14.01,2013-08-17 03:31:00,
2013-08-16 23:36:00,62.5,56.6,30.17,East,87,0.0,0.0,81,0.00,,---,0.00,VWS V14.01,2013-08-17 03:36:00,
2013-08-16 23:42:00,62.4,56.5,30.17,East,87,0.0,0.0,81,0.00,,---,0.00,VWS V14.01,2013-08-17 03:42:00,
2013-08-16 23:47:00,62.3,56.4,30.17,East,87,0.0,0.0,81,0.00,,---,0.00,VWS V14.01,2013-08-17 03:47:00,
2013-08-16 23:52:00,62.2,56.3,30.17,East,87,0.0,0.0,81,0.00,,---,0.00,VWS V14.01,2013-08-17 03:52:00,
2013-08-16 23:57:00,62.1,56.2,30.17,East,87,0.0,0.0,81,0.00,,---,0.00,VWS V14.01,2013-08-17 03:57:00,